This demonstration page uses our WeatherBlox Daily Observations layout. Learn more.

Hourly Observations for January 7, 2020

Temp ( °F °C ) Dew Point ( °F °C ) Humidity (%) Winds ( mph kmh ) Pressure ( in mb ) Visibility ( mi km ) Precip ( " mm )
12:15 am 00:15 Clear 28 -2 28 -2 100 100 Calm 30.12 1020 10 16.0934 N/A
12:36 am 00:36 Clear 27 -3 27 -3 100 100 Calm 30.12 1020 10 16.0934 N/A
12:56 am 00:56 Clear 23 -5 23 -5 100 100 Calm 30.11 1020 10 16.0934 N/A
1:15 am 01:15 Clear 25 -4 25 -4 100 100 E 3 6 30.1 1019 10 16.0934 N/A
1:35 am 01:35 Clear 27 -3 27 -3 100 100 Calm 30.1 1019 10 16.0934 N/A
1:55 am 01:55 Clear 25 -4 25 -4 100 100 NNE 5 7 30.09 1019 10 16.0934 N/A
2:16 am 02:16 Clear 23 -5 23 -5 100 100 NNE 5 7 30.08 1019 10 16.0934 N/A
2:35 am 02:35 Partly Cloudy 23 -5 23 -5 100 100 NE 5 7 30.08 1019 10 16.0934 N/A
2:55 am 02:55 Clear 25 -4 25 -4 100 100 ENE 3 6 30.08 1019 10 16.0934 N/A
3:15 am 03:15 Partly Cloudy 27 -3 27 -3 100 100 ENE 3 6 30.07 1018 10 16.0934 N/A
3:35 am 03:35 Mostly Cloudy 27 -3 27 -3 100 100 N 3 6 30.08 1018 10 16.0934 N/A
3:56 am 03:56 Partly Cloudy 27 -3 27 -3 100 100 N 5 7 30.07 1018 10 16.0934 N/A
4:15 am 04:15 Cloudy 27 -3 27 -3 100 100 N 3 6 30.07 1018 10 16.0934 N/A
4:36 am 04:36 Partly Cloudy 28 -2 28 -2 100 100 Calm 30.06 1018 10 16.0934 N/A
4:55 am 04:55 Partly Cloudy 27 -3 27 -3 100 100 Calm 30.06 1018 10 16.0934 N/A
5:15 am 05:15 Partly Cloudy 27 -3 27 -3 100 100 Calm 30.06 1018 10 16.0934 N/A
5:36 am 05:36 Partly Cloudy 27 -3 27 -3 100 100 Calm 30.05 1017 10 16.0934 N/A
5:56 am 05:56 Mostly Cloudy 27 -3 27 -3 100 100 Calm 30.05 1017 10 16.0934 N/A
6:15 am 06:15 Cloudy 25 -4 25 -4 100 100 Calm 30.05 1018 10 16.0934 N/A
6:35 am 06:35 Cloudy 25 -4 25 -4 100 100 Calm 30.05 1018 10 16.0934 N/A
6:55 am 06:55 Partly Cloudy 23 -5 23 -5 100 100 SSE 6 9 30.03 1017 10 16.0934 N/A
7:16 am 07:16 Partly Cloudy 23 -5 23 -5 100 100 Calm 30.05 1018 10 16.0934 N/A
7:36 am 07:36 Partly Cloudy 25 -4 25 -4 100 100 W 3 6 30.05 1018 10 16.0934 N/A
7:55 am 07:55 Partly Cloudy 23 -5 23 -5 100 100 Calm 30.04 1017 10 16.0934 N/A
8:16 am 08:16 Partly Cloudy 23 -5 23 -5 100 100 Calm 30.05 1018 10 16.0934 N/A
8:35 am 08:35 Partly Cloudy 21 -6 21 -6 100 100 W 5 7 30.07 1018 10 16.0934 N/A
8:56 am 08:56 Mostly Cloudy 27 -3 27 -3 100 100 W 6 9 30.07 1018 7 11.26538 N/A
9:15 am 09:15 Mostly Cloudy 28 -2 28 -2 100 100 W 5 7 30.07 1018 10 16.0934 N/A
9:35 am 09:35 Partly Cloudy 32 0 30 -1 93 93 Calm 30.07 1018 10 16.0934 N/A
9:56 am 09:56 Sunny 34 1 30 -1 87 87 Calm 30.07 1018 10 16.0934 N/A
10:15 am 10:15 Sunny 36 2 30 -1 81 81 Calm 30.07 1018 10 16.0934 N/A
10:35 am 10:35 Sunny 37 3 30 -1 75 75 SSW 3 6 30.05 1018 10 16.0934 N/A
10:56 am 10:56 Sunny 39 4 30 -1 70 70 SW 7 11 30.06 1018 10 16.0934 N/A
11:16 am 11:16 Sunny 41 5 28 -2 61 61 SW 8 13 30.06 1018 10 16.0934 N/A
11:36 am 11:36 Sunny 43 6 28 -2 57 57 WSW 9 15 30.04 1017 10 16.0934 N/A
11:55 am 11:55 Mostly Cloudy 43 6 28 -2 57 57 WSW 13 20 30.04 1017 10 16.0934 N/A
12:16 pm 12:16 Mostly Cloudy 45 7 28 -2 53 53 WSW 13 20 30.03 1017 10 16.0934 N/A
12:36 pm 12:36 Partly Cloudy 45 7 28 -2 53 53 W 15 24 30.02 1017 10 16.0934 N/A
12:56 pm 12:56 Partly Cloudy 43 6 27 -3 53 53 W 14 22 30.01 1016 10 16.0934 N/A
1:16 pm 13:16 Mostly Cloudy 43 6 27 -3 53 53 W 12 19 30.01 1016 10 16.0934 N/A
1:35 pm 13:35 Cloudy 45 7 25 -4 46 46 W 14 22 30.01 1016 10 16.0934 N/A
1:56 pm 13:56 Cloudy 45 7 27 -3 49 49 W 14 22 30 1016 10 16.0934 N/A
2:15 pm 14:15 Mostly Cloudy 45 7 28 -2 53 53 W 17 28 30.01 1016 10 16.0934 N/A
2:36 pm 14:36 Mostly Cloudy 45 7 30 -1 57 57 W 14 22 30.01 1016 10 16.0934 N/A
2:55 pm 14:55 Partly Cloudy 45 7 28 -2 53 53 W 15 24 30.01 1016 10 16.0934 N/A
3:16 pm 15:16 Sunny 45 7 28 -2 53 53 W 18 30 30.02 1017 10 16.0934 N/A
3:35 pm 15:35 Sunny 45 7 30 -1 57 57 W 20 31 30.02 1017 10 16.0934 N/A
3:55 pm 15:55 Sunny 43 6 30 -1 61 61 WNW 20 31 30.04 1017 10 16.0934 N/A
4:16 pm 16:16 Sunny 43 6 30 -1 61 61 W 23 37 30.05 1018 10 16.0934 N/A
4:36 pm 16:36 Sunny 41 5 32 0 70 70 WNW 18 30 30.07 1018 10 16.0934 N/A
4:55 pm 16:55 Partly Cloudy 41 5 32 0 70 70 W 16 26 30.08 1019 10 16.0934 N/A
5:16 pm 17:16 Mostly Cloudy 41 5 32 0 70 70 W 10 17 30.09 1019 10 16.0934 N/A
5:35 pm 17:35 Partly Cloudy 39 4 30 -1 70 70 W 17 28 30.1 1019 10 16.0934 N/A
5:56 pm 17:56 Clear 37 3 30 -1 75 75 W 12 19 30.1 1019 10 16.0934 N/A
6:15 pm 18:15 Clear 37 3 30 -1 75 75 W 13 20 30.11 1020 10 16.0934 N/A
6:35 pm 18:35 Clear 37 3 30 -1 75 75 W 10 17 30.11 1020 10 16.0934 N/A
6:56 pm 18:56 Clear 36 2 32 0 87 87 WSW 12 19 30.11 1020 10 16.0934 N/A
7:15 pm 19:15 Partly Cloudy 36 2 32 0 87 87 WSW 10 17 30.12 1020 10 16.0934 N/A
7:35 pm 19:35 Mostly Cloudy 37 3 32 0 81 81 WSW 14 22 30.1 1019 10 16.0934 N/A
7:56 pm 19:56 Partly Cloudy 37 3 32 0 81 81 W 15 24 30.1 1019 10 16.0934 N/A
8:16 pm 20:16 Mostly Cloudy 37 3 32 0 81 81 W 13 20 30.11 1020 10 16.0934 N/A
8:35 pm 20:35 Cloudy 37 3 32 0 81 81 WSW 16 26 30.11 1020 10 16.0934 N/A
8:55 pm 20:55 Cloudy 37 3 32 0 81 81 W 15 24 30.11 1020 10 16.0934 N/A
9:15 pm 21:15 Cloudy 36 2 32 0 87 87 WSW 15 24 30.12 1020 10 16.0934 N/A
9:36 pm 21:36 Mostly Cloudy 36 2 32 0 87 87 WSW 13 20 30.11 1020 10 16.0934 N/A
9:55 pm 21:55 Cloudy 36 2 32 0 87 87 WSW 14 22 30.12 1020 10 16.0934 N/A
10:15 pm 22:15 Cloudy 37 3 34 1 87 87 WSW 14 22 30.1 1019 10 16.0934 N/A
10:36 pm 22:36 Cloudy 37 3 34 1 87 87 W 16 26 30.11 1020 10 16.0934 N/A
10:55 pm 22:55 Cloudy 37 3 34 1 87 87 W 17 28 30.13 1020 10 16.0934 N/A
11:15 pm 23:15 Cloudy 37 3 34 1 87 87 W 14 22 30.12 1020 10 16.0934 N/A
11:35 pm 23:35 Cloudy 37 3 34 1 87 87 W 16 26 30.12 1020 10 16.0934 N/A
11:55 pm 23:55 Cloudy 37 3 34 1 87 87 W 14 22 30.11 1020 10 16.0934 N/A

Powered by AerisWeather